Wetbulb
56.75 56.85 56.54 55.75 55.71 55.95 55.82 55.96 55.52 55.34 55.21 54.70 53.76 53.54 53.88 54.43 54.44 52.09 47.96 51.08 52.69 58.44 59.27 53.89 52.50 53.00 56.47 51.85 55.44 53.32 44.64 40.53 41.73 43.60 45.22 49.18 47.69 50.77 52.15 46.04 54.31 59.33 56.60 60.61 64.60
56.14 56.05 55.99 55.37 55.36 55.50 55.84 55.68 55.00 54.85 54.72 54.09 53.16 52.99 52.96 53.36 48.84 46.98 53.21 57.61 59.07 58.47 53.89 51.44 48.09 50.97 49.37 48.77 52.71 48.72 43.74 42.59 46.42 47.86 47.13 48.57 47.92 48.09 47.63 45.48 53.65 58.62 62.11 63.76 65.70
55.54 55.93 55.57 54.77 54.76 55.27 55.22 54.82 54.50 54.17 53.11 53.10 52.74 52.41 52.53 51.54 42.33 41.42 55.20 56.96 58.51 57.81 54.80 54.27 50.46 48.89 46.68 47.57 47.42 49.27 43.74 46.44 48.03 50.43 50.76 49.52 48.86 49.07 46.26 43.98 45.66 46.12 58.64 62.39 64.46
55.05 55.15 55.31 53.53 54.02 54.79 54.81 54.41 54.10 53.06 52.26 52.32 52.39 52.27 52.48 47.26 28.68 45.37 56.44 57.50 57.95 55.96 52.01 52.15 50.20 44.67 43.58 43.79 47.29 43.93 48.33 48.77 50.27 52.13 50.73 49.00 50.54 47.27 46.08 46.59 50.50 51.19 56.79 60.45 62.56
54.49 54.53 54.75 54.30 53.09 53.08 54.06 53.90 53.41 52.79 52.39 51.72 51.57 51.65 47.45 39.19 38.18 48.97 53.44 54.63 52.44 52.08 47.17 48.60 47.35 43.37 41.68 44.68 46.08 41.31 45.41 49.82 51.23 50.86 50.21 49.90 47.56 46.55 46.74 49.05 50.90 51.99 59.97 59.50 60.41
53.53 53.88 53.73 54.29 53.02 52.58 52.35 53.01 52.81 52.48 51.90 51.62 51.80 51.57 42.97 32.92 44.63 47.51 49.35 49.81 48.92 48.63 48.24 49.48 47.69 46.88 43.44 44.83 44.69 46.06 46.04 48.37 50.54 49.52 47.85 46.47 46.62 47.05 48.17 48.30 49.04 50.44 58.09 58.51 59.30
52.96 52.69 52.80 53.52 53.37 53.08 52.80 51.72 52.44 52.18 52.00 51.98 51.57 48.20 41.09 37.35 45.69 46.61 48.82 48.14 48.97 47.80 46.53 50.29 51.09 46.08 44.66 43.11 47.34 46.04 44.11 46.04 47.69 47.45 46.78 48.74 44.22 44.34 49.19 49.30 47.78 48.10 52.04 57.18 58.04
52.86 51.82 52.19 52.91 53.16 53.01 53.32 53.43 50.58 50.92 51.43 51.88 52.11 45.12 36.39 46.71 45.76 46.15 47.20 46.86 48.88 49.57 50.39 52.28 53.21 46.87 44.63 45.05 44.36 42.44 42.54 38.17 44.40 46.53 47.12 45.91 38.86 46.01 49.57 47.70 47.52 48.16 46.08 46.97 48.12
52.83 51.99 51.35 52.32 52.48 53.13 53.19 53.06 51.52 50.77 51.03 51.47 44.91 40.70 33.91 48.38 44.09 45.23 46.50 44.85 46.45 49.16 52.79 53.36 52.00 44.72 45.18 39.46 35.85 40.13 34.48 35.16 40.54 45.98 45.88 44.91 40.06 45.96 50.15 47.86 47.21 47.80 45.88 45.68 45.33
52.38 51.65 50.91 51.76 52.13 52.78 53.28 52.39 51.24 49.03 49.18 49.52 47.25 36.07 39.97 38.66 43.08 44.57 47.09 47.63 44.23 45.64 47.12 47.45 46.52 39.56 38.56 36.14 30.42 33.18 30.71 31.89 37.08 42.63 44.33 42.56 41.04 45.13 48.41 47.81 47.01 47.74 44.46 44.29 44.82
52.39 51.70 50.66 51.11 51.62 52.36 48.63 42.20 38.71 37.98 39.97 36.43 37.00 36.73 39.88 43.03 44.87 44.46 47.33 44.93 43.37 43.21 37.65 42.49 36.89 33.42 37.44 36.92 35.77 36.03 34.52 34.25 37.18 43.34 41.64 40.76 41.14 42.28 46.90 46.83 46.47 47.67 43.09 44.23 44.90
52.00 51.44 50.66 51.02 50.98 52.13 43.84 37.71 38.48 39.24 32.49 39.84 40.02 39.76 42.55 43.06 37.22 42.57 47.26 38.79 37.36 35.99 37.76 39.91 33.30 37.61 40.46 40.67 37.51 36.95 33.61 32.42 37.87 42.73 41.59 40.51 40.16 43.70 44.89 43.71 44.55 45.30 44.72 43.91 42.74
51.59 50.84 50.45 51.45 50.55 44.98 40.90 40.27 44.12 43.76 34.65 37.81 40.74 39.81 39.46 41.26 37.78 39.69 43.37 39.96 35.89 34.43 35.24 35.75 37.42 41.36 40.10 38.71 36.43 33.70 33.06 32.84 34.10 38.35 38.99 39.19 37.39 40.44 44.13 46.25 44.43 43.44 41.74 41.93 42.70
50.94 50.76 50.84 50.49 44.98 42.19 39.81 44.84 44.81 43.46 29.51 33.41 36.24 38.65 41.37 41.30 36.05 44.58 44.29 40.59 36.05 34.15 36.43 38.53 40.37 39.60 38.48 37.42 36.99 31.54 37.34 36.80 36.19 34.47 30.82 38.44 29.02 36.20 41.77 42.69 43.87 45.83 41.32 41.36 41.26
50.87 50.46 51.09 49.28 40.89 42.60 44.70 45.34 44.01 40.62 18.66 36.10 36.73 45.79 41.89 38.55 38.38 39.19 45.12 41.32 34.58 35.81 35.99 36.80 36.92 38.39 37.41 37.84 38.41 34.69 38.22 36.31 35.22 32.58 31.06 31.26 29.98 32.40 33.76 36.86 42.14 45.17 41.79 40.74 40.69
50.58 50.32 50.13 46.98 44.77 47.09 47.99 46.91 43.33 20.22 14.78 32.46 38.65 37.27 36.07 37.70 37.89 39.56 40.69 44.35 42.28 36.88 36.89 37.37 42.95 41.15 38.48 39.62 39.35 38.84 35.73 36.22 34.57 32.09 26.20 30.40 29.87 29.52 31.32 34.01 35.84 40.94 41.62 42.48 40.66
50.74 50.58 49.01 46.70 40.59 48.88 47.93 42.51 20.15 18.43 32.09 31.58 33.17 35.70 35.35 35.05 35.42 36.23 36.11 35.23 33.67 30.44 30.74 37.76 38.53 40.84 40.36 37.25 39.36 35.73 31.52 24.12 24.26 23.13 23.43 29.22 28.96 33.56 35.95 35.88 37.53 38.63 38.93 39.21 39.35
50.28 49.06 49.27 47.19 47.31 47.73 43.67 29.22 18.20 27.84 28.65 37.78 37.73 37.08 34.42 36.09 36.41 36.57 34.87 33.55 38.12 33.32 32.55 31.97 29.35 37.50 38.70 35.97 34.07 34.98 32.94 22.89 19.06 20.71 22.66 28.44 25.92 31.91 37.30 38.10 37.90 39.08 39.23 37.12 39.91
47.87 42.35 44.06 44.69 47.57 45.99 34.84 16.55 21.18 22.97 31.15 33.52 36.16 32.74 34.04 37.26 37.46 36.85 35.14 34.12 36.24 38.24 30.75 30.07 31.50 39.68 41.05 40.01 37.77 33.40 32.48 30.77 22.12 19.34 18.45 25.01 28.43 33.61 35.86 36.00 36.28 36.38 38.15 37.27 40.72
39.95 39.15 40.85 47.39 47.22 42.61 26.55 26.42 23.38 31.75 35.07 36.66 29.01 32.94 30.71 34.10 34.40 34.31 35.28 38.79 36.93 38.80 37.12 32.30 30.22 36.93 39.53 40.68 39.18 35.17 35.57 28.95 22.02 15.42 16.62 20.56 22.51 26.79 31.09 34.10 35.99 36.07 37.44 39.06 41.78
38.64 36.93 42.31 47.89 46.30 35.49 21.59 25.59 31.82 37.13 37.73 34.75 32.40 31.54 31.26 32.20 32.48 29.72 29.71 35.55 37.90 36.77 36.05 33.26 31.59 33.76 38.10 34.85 32.98 35.90 31.51 29.50 28.79 23.98 20.30 18.25 23.19 30.32 31.84 33.26 33.63 36.17 39.19 40.46 42.27
35.51 29.78 42.80 44.91 35.33 29.41 28.62 33.56 39.44 37.26 38.04 36.84 36.49 34.86 31.86 31.52 31.19 31.50 30.64 32.57 38.33 38.68 33.51 34.47 31.13 29.90 33.01 37.92 38.74 37.09 34.51 30.07 22.57 20.33 18.82 19.48 22.94 32.17 32.51 33.32 35.39 37.21 41.02 42.13 42.65
33.11 33.40 40.85 41.55 25.79 27.88 33.78 36.50 37.80 36.62 36.52 35.97 34.17 35.52 34.79 31.91 29.79 31.56 32.51 37.43 38.74 38.39 35.32 35.84 28.61 26.25 28.49 32.87 35.71 34.87 36.91 34.16 29.04 25.37 17.76 20.11 25.05 33.14 32.91 34.90 37.16 38.36 40.11 41.78 43.16
32.30 27.21 32.81 36.05 34.76 31.26 30.71 33.19 34.67 38.51 37.21 36.88 34.97 35.35 33.39 31.86 33.69 31.10 31.85 36.79 37.71 37.34 43.28 38.81 29.26 25.87 21.98 25.02 30.71 32.12 35.59 36.86 30.89 29.70 25.10 24.27 26.46 31.00 32.57 33.68 36.01 38.07 39.75 40.53 42.52
29.87 27.46 29.45 24.66 30.24 31.16 32.39 34.72 34.32 33.96 36.75 37.10 34.06 35.13 32.14 29.34 30.31 30.02 32.80 33.90 36.06 40.47 36.03 34.96 27.71 27.30 28.64 31.21 29.32 29.76 32.80 35.60 33.30 33.47 30.17 30.38 29.82 35.68 35.88 34.64 35.74 38.12 39.82 40.59 41.05
27.26 26.32 27.92 26.10 29.73 29.64 33.04 31.16 33.81 35.20 35.50 34.42 33.82 35.84 34.14 30.87 30.47 30.46 32.79 31.14 31.42 33.18 32.85 32.66 26.19 28.71 27.31 31.70 29.93 28.54 30.81 33.65 35.11 35.19 34.57 34.45 32.76 37.51 37.15 35.58 38.04 39.20 40.20 40.94 41.16
30.71 31.16 29.40 27.83 26.99 29.62 29.22 29.72 34.15 35.68 38.22 38.59 36.69 34.32 33.50 34.37 35.04 34.66 34.82 35.09 33.67 32.86 31.08 29.90 27.00 24.25 21.00 27.93 27.64 23.70 28.26 30.31 32.57 35.18 35.25 31.81 36.93 35.70 35.76 36.77 38.67 38.42 40.33 41.15 41.79
MSLP
1018.72 1018.19 1017.71 1017.48 1017.10 1016.59 1015.95 1015.60 1015.55 1015.45 1015.39 1015.44 1015.40 1015.69 1015.78 1015.83 1015.76 1015.76 1015.62 1015.36 1015.14 1014.80 1014.79 1014.79 1014.77 1014.86 1014.97 1015.27 1015.44 1015.36 1015.39 1015.57 1015.89 1016.08 1015.94 1015.97 1015.57 1015.35 1014.79 1014.66 1014.12 1014.23 1014.05 1013.61 1013.95
1018.56 1018.19 1017.71 1017.40 1016.96 1016.24 1015.71 1015.20 1015.19 1015.18 1015.23 1015.44 1015.46 1015.62 1015.71 1015.86 1015.99 1015.67 1015.32 1014.86 1014.67 1014.77 1015.16 1015.20 1015.14 1015.15 1015.33 1015.37 1015.31 1015.35 1014.94 1014.91 1015.18 1015.54 1015.85 1016.32 1016.13 1016.20 1015.71 1015.18 1014.97 1015.01 1014.49 1014.13 1014.35
1018.57 1018.14 1017.70 1017.45 1017.00 1016.26 1015.69 1015.33 1015.08 1015.00 1014.97 1015.48 1015.59 1015.62 1015.71 1015.91 1016.09 1015.15 1014.16 1014.51 1014.44 1014.64 1014.98 1015.39 1015.38 1015.39 1015.68 1015.57 1015.59 1015.44 1014.91 1015.34 1015.13 1015.33 1015.87 1016.51 1016.73 1016.78 1016.67 1016.26 1016.39 1016.55 1015.97 1014.65 1014.76
1018.51 1018.17 1017.86 1017.41 1017.12 1016.50 1015.87 1015.47 1015.15 1015.01 1015.11 1015.20 1015.45 1015.68 1015.78 1016.06 1016.05 1014.78 1013.80 1013.67 1014.18 1014.69 1015.14 1015.38 1015.45 1015.71 1015.78 1015.61 1015.36 1015.46 1015.11 1015.01 1015.20 1015.77 1016.32 1017.01 1017.28 1017.01 1017.27 1016.84 1016.78 1016.08 1015.84 1015.57 1014.98
1018.60 1018.38 1018.00 1017.64 1017.24 1016.92 1016.27 1015.85 1015.60 1015.35 1015.37 1015.39 1015.45 1015.69 1016.01 1016.29 1015.75 1015.06 1014.39 1013.96 1014.52 1014.92 1015.23 1015.54 1015.40 1015.63 1015.80 1015.45 1015.36 1015.31 1015.46 1015.46 1015.24 1016.39 1017.07 1017.16 1017.66 1017.79 1016.61 1016.70 1016.62 1015.94 1015.58 1015.69 1015.28
1018.77 1018.44 1018.07 1017.74 1017.46 1017.16 1016.76 1016.26 1015.99 1015.79 1015.71 1015.62 1015.62 1015.81 1016.16 1016.28 1015.25 1015.12 1014.77 1014.70 1014.67 1014.94 1015.06 1015.46 1015.28 1015.44 1015.69 1015.36 1015.35 1015.18 1015.09 1015.23 1016.31 1016.53 1017.41 1017.64 1018.12 1017.93 1016.01 1016.58 1016.57 1016.43 1016.09 1015.85 1015.64
1018.60 1018.45 1018.16 1017.73 1017.46 1017.13 1016.92 1016.67 1016.36 1016.09 1016.00 1015.77 1015.82 1015.98 1016.20 1015.85 1015.14 1015.15 1014.84 1014.96 1014.68 1015.08 1015.20 1015.06 1015.50 1015.43 1015.48 1015.53 1015.36 1015.46 1016.13 1016.61 1016.79 1017.37 1017.52 1018.11 1018.58 1018.27 1016.16 1017.00 1016.84 1016.67 1016.39 1015.97 1015.69
1018.60 1018.20 1018.16 1017.71 1017.42 1017.11 1016.82 1016.61 1016.59 1016.39 1016.21 1016.03 1015.94 1016.19 1016.02 1015.30 1015.16 1015.06 1014.92 1014.77 1014.48 1014.86 1014.85 1015.12 1015.38 1015.66 1015.65 1015.49 1015.68 1016.16 1016.48 1017.03 1017.26 1017.42 1018.32 1018.23 1018.04 1017.96 1016.95 1017.51 1017.19 1017.13 1016.83 1015.87 1015.52
1018.54 1018.29 1018.04 1017.82 1017.43 1017.15 1016.78 1016.53 1016.51 1016.46 1016.37 1016.26 1016.44 1016.48 1015.82 1014.98 1015.22 1015.17 1015.04 1015.06 1014.96 1014.79 1014.40 1014.97 1015.56 1015.80 1015.72 1015.88 1016.54 1016.47 1016.46 1016.67 1017.10 1016.58 1017.52 1017.86 1017.57 1017.10 1017.47 1017.59 1017.51 1017.25 1016.96 1016.31 1015.63
1018.36 1018.11 1017.81 1017.62 1017.38 1016.98 1016.60 1016.38 1016.50 1016.60 1016.61 1016.49 1016.61 1016.95 1015.87 1015.75 1015.51 1015.44 1015.53 1015.40 1015.81 1015.32 1014.98 1015.34 1015.49 1015.77 1015.95 1015.91 1015.33 1015.69 1016.59 1016.31 1016.19 1016.58 1017.08 1017.37 1016.89 1017.32 1017.36 1017.76 1017.59 1016.92 1016.75 1016.58 1015.88
1018.17 1017.87 1017.65 1017.29 1017.12 1016.77 1016.82 1016.98 1017.32 1017.24 1017.00 1016.94 1016.90 1016.65 1016.30 1015.78 1015.50 1015.42 1015.68 1016.07 1016.16 1015.42 1015.34 1015.60 1015.39 1014.86 1014.83 1015.55 1015.52 1016.01 1016.53 1016.72 1016.51 1016.51 1016.91 1016.80 1016.74 1017.24 1017.69 1018.29 1017.26 1016.36 1016.57 1016.48 1015.97
1017.90 1017.58 1017.25 1017.06 1016.64 1016.58 1016.98 1017.22 1017.00 1016.99 1017.00 1016.87 1016.80 1016.75 1016.53 1016.23 1015.95 1015.65 1015.77 1016.39 1016.64 1015.66 1016.23 1015.75 1015.40 1015.58 1015.60 1015.66 1015.64 1015.97 1016.63 1016.79 1016.44 1016.08 1016.58 1016.92 1017.18 1017.59 1017.70 1017.97 1017.50 1016.36 1015.96 1015.99 1016.09
1017.64 1017.35 1016.96 1016.60 1016.53 1016.77 1016.88 1016.92 1016.77 1016.80 1017.08 1016.92 1016.79 1016.67 1016.74 1016.56 1015.94 1015.76 1015.74 1016.51 1016.61 1016.45 1016.62 1015.68 1015.48 1015.33 1015.58 1015.83 1015.94 1016.05 1016.29 1016.50 1016.54 1016.67 1016.93 1017.07 1017.53 1017.76 1017.01 1016.70 1016.30 1015.99 1015.53 1015.64 1015.99
1017.33 1016.99 1016.69 1016.61 1016.97 1016.91 1016.81 1016.83 1016.83 1016.82 1017.27 1017.34 1016.88 1016.68 1016.79 1016.61 1016.23 1015.81 1015.88 1016.12 1016.39 1016.78 1016.65 1016.08 1015.75 1015.37 1015.66 1015.89 1015.98 1016.28 1016.20 1016.49 1016.89 1017.08 1017.35 1016.93 1017.06 1016.57 1015.96 1015.48 1015.49 1015.20 1015.39 1015.56 1015.90
1017.10 1016.76 1016.57 1016.44 1016.87 1016.75 1016.52 1016.63 1016.90 1016.97 1017.24 1017.15 1016.84 1016.52 1016.45 1016.65 1016.62 1016.15 1015.90 1015.81 1016.24 1017.13 1017.18 1016.14 1016.04 1015.79 1015.75 1015.88 1015.94 1016.48 1016.45 1016.75 1017.26 1017.63 1017.65 1017.54 1017.74 1015.89 1015.53 1015.29 1014.22 1013.88 1014.74 1015.17 1015.50
1016.74 1016.41 1016.31 1016.84 1017.03 1016.63 1016.38 1016.57 1016.85 1017.62 1017.12 1016.70 1016.51 1016.46 1016.39 1016.44 1016.44 1016.38 1015.99 1016.17 1016.20 1016.70 1016.89 1016.50 1016.18 1015.95 1015.93 1016.13 1016.01 1016.29 1016.95 1017.51 1018.39 1018.84 1018.86 1018.26 1018.07 1015.33 1015.08 1014.16 1013.94 1013.93 1014.32 1014.67 1015.36
1016.25 1015.86 1015.98 1016.56 1016.75 1016.43 1016.64 1017.16 1017.71 1017.14 1016.81 1016.67 1016.12 1016.05 1016.00 1016.20 1016.54 1016.43 1015.79 1015.50 1016.07 1016.86 1016.90 1016.61 1016.43 1016.40 1016.04 1016.56 1016.59 1016.65 1017.56 1019.16 1020.03 1020.13 1019.49 1018.84 1018.17 1014.94 1014.24 1014.04 1014.01 1013.97 1014.06 1014.53 1015.24
1015.91 1015.81 1015.94 1016.33 1016.48 1016.52 1017.11 1017.65 1017.68 1017.12 1016.32 1015.77 1015.37 1015.44 1015.43 1015.48 1015.92 1016.18 1016.02 1015.88 1016.19 1016.53 1016.40 1016.34 1016.60 1016.58 1016.57 1016.74 1016.93 1017.51 1018.12 1019.28 1020.06 1020.78 1020.12 1019.20 1017.26 1014.70 1013.57 1013.36 1013.43 1013.81 1014.32 1014.75 1015.50
1015.91 1016.37 1016.46 1016.34 1016.42 1016.65 1017.33 1017.67 1017.32 1016.61 1016.08 1015.25 1014.97 1014.92 1014.77 1014.46 1014.97 1015.53 1016.02 1015.91 1015.57 1015.35 1015.62 1015.97 1016.77 1016.96 1016.89 1016.96 1017.14 1018.02 1018.69 1019.22 1020.42 1021.52 1020.98 1019.03 1016.97 1015.13 1013.74 1013.64 1013.86 1014.10 1014.56 1014.86 1015.35
1016.36 1016.72 1016.59 1016.25 1016.39 1016.79 1017.64 1017.39 1016.85 1015.94 1015.44 1015.03 1014.53 1014.27 1014.38 1014.53 1014.43 1014.64 1014.89 1014.89 1014.83 1014.97 1014.89 1015.51 1016.45 1017.11 1017.12 1017.15 1017.56 1017.64 1018.39 1019.54 1020.65 1021.49 1021.07 1019.04 1017.68 1015.73 1014.56 1014.15 1014.31 1014.35 1014.67 1015.03 1015.51
1016.54 1016.99 1016.68 1016.34 1016.49 1017.07 1017.36 1016.90 1016.06 1015.28 1014.75 1014.50 1014.09 1013.82 1013.76 1014.05 1014.26 1014.18 1014.38 1014.55 1014.45 1014.74 1014.94 1015.43 1015.96 1017.63 1017.38 1017.45 1017.58 1018.07 1018.33 1019.27 1019.96 1020.74 1020.66 1019.73 1017.20 1015.13 1014.84 1014.42 1014.26 1014.18 1014.64 1015.17 1015.39
1016.91 1017.29 1016.71 1016.63 1016.91 1017.03 1016.69 1015.70 1015.20 1014.95 1014.57 1014.12 1013.78 1013.49 1013.50 1013.49 1013.55 1013.33 1013.60 1013.85 1014.02 1014.15 1015.11 1015.43 1016.33 1017.34 1017.64 1017.49 1017.44 1017.48 1017.94 1018.62 1019.65 1020.74 1020.93 1019.83 1016.67 1014.77 1014.60 1014.30 1013.95 1013.94 1014.41 1014.94 1015.55
1017.44 1017.62 1016.96 1016.92 1016.95 1016.88 1016.07 1015.54 1014.99 1014.50 1014.28 1013.98 1013.58 1013.18 1013.27 1013.60 1013.90 1013.96 1013.83 1013.78 1013.90 1014.37 1014.94 1015.43 1016.61 1017.84 1018.24 1018.22 1017.79 1017.53 1017.62 1018.23 1019.19 1019.73 1019.72 1019.20 1016.11 1014.55 1014.26 1013.73 1013.65 1014.12 1014.59 1014.92 1015.53
1018.07 1018.37 1017.66 1017.32 1017.17 1016.78 1016.37 1015.79 1015.00 1014.43 1014.22 1013.84 1013.57 1013.23 1013.12 1013.77 1013.90 1014.08 1014.06 1013.92 1013.93 1014.19 1014.42 1014.89 1016.18 1016.81 1017.33 1017.14 1017.05 1017.44 1017.31 1017.76 1018.67 1018.53 1018.17 1016.58 1015.80 1014.52 1014.08 1013.87 1013.91 1014.12 1014.37 1014.92 1015.60
1018.64 1019.59 1019.43 1018.64 1018.20 1017.53 1016.98 1016.18 1015.52 1014.83 1014.49 1014.14 1014.15 1013.84 1013.71 1013.77 1014.12 1014.34 1014.32 1014.37 1014.36 1014.52 1014.93 1015.49 1016.57 1017.24 1017.23 1017.12 1017.23 1016.96 1016.81 1017.00 1017.14 1017.04 1016.79 1015.62 1014.80 1014.05 1013.64 1013.56 1013.59 1013.84 1014.32 1014.82 1015.30
1019.54 1020.07 1019.83 1019.50 1018.78 1018.14 1017.31 1016.90 1016.15 1015.54 1015.15 1014.93 1014.58 1014.55 1013.87 1014.03 1014.35 1014.35 1014.45 1014.47 1014.51 1015.00 1015.47 1016.11 1016.99 1017.66 1017.82 1017.54 1017.46 1017.13 1016.56 1016.46 1016.47 1016.24 1015.74 1015.29 1013.91 1013.32 1013.08 1013.13 1013.19 1013.37 1013.95 1014.45 1014.85
1019.88 1020.03 1020.01 1020.04 1019.30 1018.68 1018.43 1017.72 1016.89 1016.28 1015.71 1015.33 1015.10 1014.76 1014.68 1014.54 1014.40 1014.36 1014.39 1014.51 1014.62 1015.07 1015.91 1016.66 1017.38 1018.11 1018.24 1017.80 1017.29 1016.55 1014.98 1015.08 1015.02 1014.73 1014.65 1014.56 1011.97 1012.85 1012.75 1012.81 1012.68 1012.91 1013.23 1013.79 1014.27
Wind_Speed
18 18 19 21 21 22 20 18 15 13 12 8 3 4 5 6 5 0 6 7 8 8 6 3 3 1 0 1 2 3 3 6 8 6 3 3 6 7 6 3 3 5 3 1 14
18 18 19 20 21 21 20 16 11 12 10 6 2 2 3 3 2 4 7 12 13 9 2 2 4 5 2 3 2 3 7 10 5 4 4 3 5 8 8 9 6 5 4 8 13
18 19 19 19 20 20 17 12 10 9 4 3 2 1 1 2 0 5 11 16 15 8 3 1 2 4 4 4 4 4 15 7 4 6 4 2 4 4 6 4 5 7 10 10 13
16 18 19 18 18 20 16 12 8 6 2 1 3 2 3 2 3 1 14 17 14 4 1 2 4 6 4 6 5 5 6 2 4 6 4 4 3 6 3 6 10 13 8 5 11
18 17 17 16 17 16 15 13 9 7 4 4 3 2 4 2 6 4 9 5 1 2 4 8 5 4 5 6 4 2 5 9 5 9 6 6 8 5 12 5 9 17 5 8 7
15 17 17 17 15 13 13 11 8 6 5 4 5 5 3 1 3 3 6 1 5 3 4 9 5 6 4 5 6 6 1 10 6 1 3 2 5 11 8 7 14 15 9 6 5
18 15 17 17 13 12 11 9 8 6 4 4 5 2 2 7 3 6 5 1 3 4 4 10 4 5 2 4 5 4 8 7 6 5 1 7 7 7 23 10 12 12 9 4 5
16 15 15 15 15 11 11 8 5 5 4 4 4 2 3 3 2 4 3 1 5 8 8 10 6 1 1 1 5 4 5 5 9 14 4 11 10 9 17 7 14 13 10 6 3
16 16 15 15 15 13 11 10 2 1 2 3 4 3 5 6 3 3 1 2 8 8 7 10 6 4 1 6 4 5 7 7 9 13 9 7 4 12 4 6 14 14 10 8 4
16 16 16 14 14 13 12 4 3 4 3 2 1 2 3 3 3 1 3 8 3 9 8 8 7 5 3 6 16 11 5 3 7 12 8 13 7 5 5 6 19 16 8 8 6
16 16 16 14 12 11 5 3 3 2 2 2 2 2 3 7 1 2 5 6 5 7 9 11 2 19 17 4 1 9 6 8 3 11 15 15 9 4 12 9 22 20 8 8 9
17 16 16 14 10 9 4 2 2 2 1 1 4 3 2 3 1 2 6 4 4 10 7 5 3 10 8 5 5 9 7 4 2 10 8 8 4 8 6 11 15 20 15 10 4
17 17 17 13 6 2 3 3 3 1 2 1 2 1 2 3 2 1 2 8 1 5 6 4 2 10 7 4 5 3 8 5 6 5 3 8 5 8 16 22 11 10 8 6 9
18 18 16 6 1 2 1 4 2 2 2 2 1 1 2 2 1 2 2 3 4 4 4 2 5 14 11 5 4 4 5 6 8 6 5 5 5 14 20 19 15 20 10 10 8
19 18 11 2 2 2 3 5 3 2 3 2 2 1 1 1 1 4 2 1 6 4 2 3 15 9 12 8 3 3 5 6 3 4 3 1 2 5 5 14 25 23 10 9 9
20 15 2 3 1 2 4 4 1 7 2 2 2 4 3 1 2 1 3 1 2 4 1 3 5 2 4 3 4 6 7 8 5 3 1 5 5 7 8 8 4 9 9 10 10
20 11 6 4 2 3 3 1 5 6 2 1 2 4 3 4 4 4 2 2 3 3 3 7 4 2 3 7 5 5 6 2 2 0 5 2 7 11 3 7 6 8 7 8 7
16 4 6 2 1 4 2 5 8 4 3 1 0 8 4 8 4 6 5 3 3 5 5 4 7 3 4 4 7 3 3 6 6 4 3 3 7 7 5 7 6 5 5 6 9
4 3 2 1 4 2 4 4 7 5 3 2 0 1 2 1 4 5 8 6 6 9 1 4 5 2 5 2 2 4 3 3 7 3 3 5 7 9 7 8 6 7 6 9 9
3 2 1 1 3 3 5 2 2 3 2 2 1 4 2 3 3 3 2 2 2 2 1 1 7 4 3 2 5 4 6 2 3 3 4 5 5 7 6 6 7 6 7 6 7
4 3 2 2 2 3 3 5 4 5 4 3 2 2 1 4 3 3 2 1 3 3 6 3 4 3 3 3 5 2 2 2 3 4 5 2 6 6 5 7 9 7 6 7 10
3 2 2 2 1 1 1 3 2 2 2 2 1 1 2 1 4 6 4 2 3 6 4 2 5 4 2 3 3 3 6 5 5 4 1 2 8 2 6 8 6 5 6 6 5
2 1 2 1 2 2 3 2 1 1 2 1 1 3 2 2 3 1 1 2 5 7 7 6 2 5 1 1 3 5 4 3 5 4 7 5 6 2 6 1 1 6 7 7 7
3 2 4 3 1 2 3 3 3 1 3 2 2 1 3 3 5 3 2 3 3 2 3 5 3 6 8 6 4 7 8 10 6 7 4 10 6 6 5 3 3 5 6 7 7
4 0 1 3 2 3 1 4 4 4 3 5 3 4 2 3 2 2 2 1 3 3 4 3 3 3 3 2 3 3 10 14 21 19 12 5 16 12 8 6 7 7 7 8 8
3 2 3 1 3 2 3 3 5 5 4 4 4 6 4 3 2 3 4 2 2 2 3 2 2 3 2 3 5 5 8 13 18 17 18 22 21 6 4 3 4 8 8 8 7
0 1 4 3 3 1 2 2 2 3 4 5 3 2 4 2 3 4 1 2 2 6 3 3 5 3 4 3 3 7 11 13 10 13 16 16 26 4 6 7 9 9 10 10 8
Wind_Direction
340 348 345 342 336 324 317 312 304 300 294 263 223 288 310 323 326 276 227 229 227 272 315 336 122 142 146 78 154 241 120 159 173 159 170 2 40 341 292 324 3 338 297 197 125
346 346 346 344 341 339 332 319 310 310 292 272 272 301 308 14 0 265 234 248 255 270 304 251 156 147 196 158 245 175 199 221 178 128 111 76 68 333 4 335 13 4 36 107 135
345 343 348 351 348 348 351 352 342 325 292 305 350 332 22 74 278 245 257 217 246 246 206 141 233 140 195 135 181 194 204 184 152 105 70 64 48 6 3 16 89 320 293 150 154
346 343 348 349 351 1 359 354 357 32 3 40 43 12 74 57 213 16 354 195 223 198 349 201 179 150 204 177 180 165 274 183 126 77 81 53 323 344 64 255 324 287 246 241 167
344 346 346 353 349 356 9 21 31 56 61 53 59 107 95 40 261 276 358 70 359 173 192 220 194 141 181 167 134 209 190 206 103 97 81 22 7 348 285 307 338 336 218 228 177
346 345 343 345 348 354 357 13 26 40 39 53 69 109 102 238 247 339 331 206 53 31 198 193 206 185 212 177 170 182 151 159 116 97 79 60 351 14 286 1 336 341 301 237 215
344 345 341 339 346 343 354 359 8 23 32 64 87 83 92 240 330 324 309 193 82 358 262 192 221 181 163 132 197 126 99 97 144 154 251 79 292 239 268 341 321 325 297 241 237
344 341 341 334 334 336 336 343 350 348 360 20 48 62 243 248 308 336 330 253 358 332 205 192 165 197 200 24 73 118 101 127 165 146 151 130 264 234 269 345 308 304 294 261 227
344 340 341 334 331 331 327 320 270 342 345 17 29 68 292 317 70 322 44 349 351 325 148 170 171 185 151 122 86 213 168 161 164 162 140 179 206 236 272 302 287 278 264 269 252
340 340 337 330 327 324 338 338 130 52 1 30 64 358 342 338 304 343 93 58 321 325 147 191 185 155 136 173 191 176 107 190 134 177 155 184 233 196 187 287 270 264 246 256 238
339 337 333 327 323 320 5 37 28 24 0 202 280 266 334 296 228 122 105 81 325 224 161 213 138 189 186 123 111 116 113 136 186 179 185 196 202 200 166 236 276 272 245 238 234
337 335 332 323 310 322 98 169 171 173 100 235 254 266 280 340 346 113 146 66 268 138 358 177 192 198 126 206 107 121 130 153 79 165 169 197 174 231 183 216 233 251 257 239 231
335 335 331 318 307 37 127 186 162 103 79 298 303 247 224 355 313 173 176 138 218 102 348 184 259 165 150 169 124 91 139 160 143 110 8 147 196 194 231 224 236 239 236 243 208
337 336 329 332 71 186 156 169 174 132 71 262 199 250 128 290 335 83 11 135 49 92 321 28 166 163 160 135 125 101 154 137 142 130 184 172 252 215 220 234 230 245 213 223 209
335 335 335 216 183 173 191 141 144 59 78 169 154 345 46 4 118 354 326 350 115 147 248 77 159 171 161 157 138 150 143 118 94 91 115 311 215 216 144 229 234 237 233 215 206
333 333 23 72 33 276 125 145 81 45 345 160 131 147 137 17 44 77 290 133 97 87 43 331 144 24 141 90 85 147 86 53 49 72 302 206 179 244 193 215 266 234 225 209 185
333 330 160 140 177 167 126 65 33 70 218 282 177 177 161 174 135 164 189 69 84 96 167 125 142 115 77 91 16 74 76 69 56 342 223 307 206 251 253 217 220 246 244 218 184
341 60 146 145 169 119 48 46 68 231 253 156 23 158 199 173 107 108 151 158 177 203 135 151 137 63 1 122 157 126 143 151 173 189 235 341 238 256 236 293 247 245 235 203 171
42 14 97 256 144 97 88 53 191 205 199 98 19 85 107 99 114 183 186 178 205 197 123 124 77 118 66 56 77 174 185 167 103 4 60 229 293 286 291 276 296 279 180 184 180
85 82 320 93 134 92 80 235 213 211 198 202 136 166 98 122 116 179 158 159 224 159 51 134 98 7 90 145 43 108 159 109 4 135 255 290 279 241 295 305 276 259 236 176 143
66 79 257 141 119 69 142 233 228 228 197 196 75 13 105 160 156 161 148 185 168 103 63 111 88 111 108 197 181 122 139 72 123 150 190 284 263 213 245 270 278 244 194 186 161
85 53 242 212 192 168 200 208 212 184 170 261 219 203 16 131 24 15 87 87 162 123 131 200 115 117 173 302 288 231 189 154 139 230 17 137 268 187 260 274 264 203 171 164 170
77 227 297 222 103 336 306 316 258 304 226 221 326 83 8 32 82 108 98 58 154 152 166 181 135 109 50 256 333 226 172 131 115 83 200 165 257 357 317 308 157 170 177 172 164
79 38 328 46 8 83 10 356 358 46 320 323 319 14 83 53 11 132 92 13 108 139 113 96 121 154 183 200 139 199 205 204 184 225 158 227 285 291 309 328 242 210 188 170 168
38 61 164 296 10 17 354 360 342 25 1 23 21 30 358 66 69 78 60 73 55 118 61 102 140 127 258 243 137 242 205 202 213 226 220 243 233 247 261 244 226 215 192 168 175
96 83 6 320 303 270 11 25 39 336 16 352 67 327 13 77 21 210 143 192 189 53 90 14 122 113 275 179 202 247 224 213 224 229 248 254 272 235 270 220 209 200 178 191 195
325 38 108 346 353 346 29 19 34 341 57 77 308 30 46 43 329 295 219 137 168 149 128 97 131 104 264 344 325 291 213 199 218 222 224 230 241 160 231 233 230 199 186 194 197